Weather reports worldwide

Advertisment
Oviedo, Spain (8015): temperature & dewpoint: 16.06.2018 15:00:00 - 22.06.2018 15:00:00 (CEST)Oviedo, Spain (8015): wind speed: 16.06.2018 15:00:00 - 22.06.2018 15:00:00 (CEST)Oviedo, Spain (8015): wind direction: 16.06.2018 15:00:00 - 22.06.2018 15:00:00 (CEST)Oviedo, Spain (8015): reduced air pressure: 16.06.2018 15:00:00 - 22.06.2018 15:00:00 (CEST)Oviedo, Spain (8015): visibility: 16.06.2018 15:00:00 - 22.06.2018 15:00:00 (CEST)Oviedo, Spain (8015): precipitation: 16.06.2018 15:00:00 - 22.06.2018 15:00:00 (CEST)
Date & Time tt [°C] td [°C] ff [km/h] ff [kn] dd ppp [hPa] vv [km] rr [mm]
22.06.2018 15:00:00 - - - - - - - -
22.06.2018 14:00:00 23,2 17,2 11 6 NE 1021,0 20 -
22.06.2018 13:00:00 23,0 17,0 16 9 E 1021,2 20 0,0
22.06.2018 12:00:00 20,4 17,6 9 5 E 1021,7 20 0,0
22.06.2018 11:00:00 18,8 17,3 9 5 E 1022,0 10 -
22.06.2018 10:00:00 17,4 16,8 9 5 ENE 1022,1 11 0,0
22.06.2018 09:00:00 16,8 16,6 5 3 E 1022,0 7 0,0
22.06.2018 08:00:00 16,6 16,6 8 4 E 1022,0 4,5 -
22.06.2018 07:00:00 16,2 16,2 8 4 ENE 1022,3 3,2 0,0
22.06.2018 06:00:00 16,2 16,2 5 3 ENE 1022,5 4,1 0,0
22.06.2018 05:00:00 16,3 16,3 8 4 ENE 1022,6 4,0 -
22.06.2018 04:00:00 16,3 16,3 8 4 ENE 1022,8 3,5 0,0
22.06.2018 03:00:00 16,4 16,4 5 3 ENE 1023,1 0,2 0,0
22.06.2018 02:00:00 16,7 16,7 5 3 ENE 1023,4 3,0 -
22.06.2018 01:00:00 16,7 16,7 9 5 ENE 1023,5 1,8 0,0
22.06.2018 00:00:00 16,9 16,9 8 4 ENE 1023,5 0,4 0,0
21.06.2018 23:00:00 17,2 17,2 9 5 ENE 1023,4 0,5 -
21.06.2018 22:00:00 17,3 17,1 11 6 NE 1022,9 0,7 0,0
21.06.2018 21:00:00 17,7 17,4 11 6 NE 1022,4 3,3 0,0
21.06.2018 20:00:00 17,9 17,3 9 5 NE 1022,6 1,0 -
21.06.2018 19:00:00 18,3 17,1 13 7 NE 1022,2 4,9 0,0
21.06.2018 18:00:00 18,5 17,3 11 6 NE 1022,2 4,4 0,0
21.06.2018 17:00:00 18,8 17,3 9 5 NE 1022,0 1,0 -
21.06.2018 16:00:00 19,0 17,3 13 7 NNE 1022,0 9 0,0
21.06.2018 15:00:00 20,8 18,0 5 3 ENE 1021,6 12 0,0
21.06.2018 14:00:00 18,9 17,6 16 9 NE 1022,0 0,3 -
21.06.2018 13:00:00 20,3 17,7 5 3 N 1021,8 10 0,0
21.06.2018 12:00:00 20,6 17,6 2 1 NNW 1021,6 12 0,0
21.06.2018 11:00:00 19,3 17,8 4 2 S 1021,8 1,0 -
21.06.2018 10:00:00 18,1 17,8 4 2 SE 1021,7 11 0,0
21.06.2018 09:00:00 17,5 17,5 4 2 NNW 1021,6 1,1 0,0
21.06.2018 08:00:00 17,1 17,1 4 2 W 1021,4 0,1 -
21.06.2018 07:00:00 17,2 17,0 5 3 N 1020,4 1,1 0,2
21.06.2018 06:00:00 17,1 16,9 9 5 NE 1020,5 1,5 0,0
21.06.2018 05:00:00 17,5 17,2 5 3 E 1020,9 0,2 -
21.06.2018 04:00:00 17,5 17,0 5 3 NE 1020,6 1,4 0,0
21.06.2018 03:00:00 17,5 16,9 5 3 ENE 1021,2 2,0 0,0
21.06.2018 02:00:00 17,8 17,0 4 2 ENE 1021,4 0,2 -
21.06.2018 01:00:00 17,9 17,1 4 2 W 1021,4 2,7 0,0
21.06.2018 00:00:00 18,1 16,9 8 4 NE 1021,3 2,8 0,0
20.06.2018 23:00:00 18,5 17,2 8 4 E 1020,6 3,0 -
20.06.2018 22:00:00 19,0 17,3 5 3 E 1019,9 - 0,0
20.06.2018 21:00:00 19,6 17,6 5 3 E 1019,7 - 0,0
20.06.2018 20:00:00 20,0 17,6 8 4 ENE 1019,3 5 -
20.06.2018 19:00:00 21,7 17,9 13 7 NNE 1018,3 9 0,0
20.06.2018 18:00:00 23,1 18,4 11 6 ENE 1018,0 13 0,0
20.06.2018 17:00:00 24,5 18,7 11 6 NE 1017,7 15 -
20.06.2018 16:00:00 23,8 18,2 9 5 ENE 1018,1 9 0,0
20.06.2018 15:00:00 22,9 17,8 4 2 ENE 1018,3 12 0,0
20.06.2018 14:00:00 20,5 17,3 2 1 WNW 1018,9 6 -
20.06.2018 13:00:00 18,8 16,6 5 3 W 1019,3 9 0,0
20.06.2018 12:00:00 18,1 16,3 4 2 NW 1019,6 11 0,0
20.06.2018 11:00:00 17,7 16,0 4 2 WNW 1019,4 10 -
20.06.2018 10:00:00 17,3 15,8 4 2 NW 1019,0 14 0,0
20.06.2018 09:00:00 17,0 16,0 2 1 S 1019,1 16 0,0
20.06.2018 08:00:00 16,6 16,4 4 2 S 1019,1 5 -
20.06.2018 07:00:00 16,3 16,0 2 1 W 1019,1 2,3 0,0
20.06.2018 06:00:00 16,5 16,2 2 1 S 1018,7 - 0,0
20.06.2018 05:00:00 16,4 16,1 0 0 N 1018,8 12 -
20.06.2018 04:00:00 16,7 15,9 2 1 ESE 1018,9 10 0,0
20.06.2018 03:00:00 16,8 15,7 4 2 E 1019,3 15 0,0
20.06.2018 02:00:00 16,9 15,9 8 4 E 1019,5 15 -
20.06.2018 01:00:00 16,8 15,8 9 5 E 1019,7 7 0,0
20.06.2018 00:00:00 16,7 15,9 8 4 E 1020,0 7 0,0
19.06.2018 23:00:00 16,9 15,6 9 5 E 1020,0 5 -
19.06.2018 22:00:00 17,2 15,5 8 4 E 1019,7 18 0,0
19.06.2018 21:00:00 17,5 15,3 9 5 ENE 1019,7 18 0,0
19.06.2018 20:00:00 18,3 15,5 11 6 ENE 1019,7 20 -
19.06.2018 19:00:00 19,3 15,6 15 8 NE 1019,6 20 0,0
19.06.2018 18:00:00 20,4 15,8 15 8 NE 1019,9 20 0,0
19.06.2018 17:00:00 20,8 15,6 13 7 NE 1020,3 20 -
19.06.2018 16:00:00 21,0 14,9 13 7 NNE 1020,6 20 0,0
19.06.2018 15:00:00 21,1 15,4 15 8 NE 1020,9 20 0,0
19.06.2018 14:00:00 20,4 15,2 15 8 NE 1021,7 20 -
19.06.2018 13:00:00 19,9 15,3 11 6 ENE 1022,4 20 0,0
19.06.2018 12:00:00 19,6 15,5 11 6 NE 1022,8 20 0,0
19.06.2018 11:00:00 18,1 14,6 9 5 ENE 1023,3 20 -
19.06.2018 10:00:00 17,2 14,7 8 4 E 1023,7 20 0,0
19.06.2018 09:00:00 16,2 15,1 9 5 E 1024,2 20 0,0
19.06.2018 08:00:00 15,5 14,7 8 4 E 1024,6 20 -
19.06.2018 07:00:00 15,5 14,5 13 7 E 1024,7 20 0,0
19.06.2018 06:00:00 15,5 14,5 9 5 E 1024,7 20 0,0
19.06.2018 05:00:00 15,7 14,9 5 3 E 1025,0 20 -
19.06.2018 04:00:00 15,7 14,7 8 4 ENE 1025,3 16 0,0
19.06.2018 03:00:00 16,0 14,5 5 3 E 1025,6 20 0,0
19.06.2018 02:00:00 16,4 14,8 8 4 ENE 1026,0 20 -
19.06.2018 01:00:00 16,5 15,0 9 5 ENE 1026,3 20 0,0
19.06.2018 00:00:00 16,9 15,2 8 4 E 1026,6 20 0,0
18.06.2018 23:00:00 17,2 15,5 9 5 E 1026,6 20 -
18.06.2018 22:00:00 17,5 15,7 11 6 NE 1026,4 20 0,0
18.06.2018 21:00:00 18,2 15,8 8 4 ENE 1026,2 19 0,0
18.06.2018 20:00:00 18,4 15,6 9 5 NE 1026,3 20 -
18.06.2018 19:00:00 18,9 15,9 9 5 ENE 1026,4 20 0,0
18.06.2018 18:00:00 19,3 15,6 11 6 ENE 1026,7 20 0,0
18.06.2018 17:00:00 20,5 15,5 11 6 ENE 1026,5 20 -
18.06.2018 16:00:00 21,3 15,8 15 8 NE 1026,5 19 0,0
18.06.2018 15:00:00 22,1 16,1 15 8 NE 1026,3 20 0,0
18.06.2018 14:00:00 22,4 15,3 9 5 NNE 1026,1 20 -
18.06.2018 13:00:00 21,4 13,8 5 3 NNE 1026,5 19 0,0
18.06.2018 12:00:00 20,3 14,9 4 2 N 1026,9 17 0,0
18.06.2018 11:00:00 17,5 14,0 4 2 S 1027,8 16 -
18.06.2018 10:00:00 16,8 14,3 4 2 SSW 1027,9 16 0,0
18.06.2018 09:00:00 15,7 13,7 5 3 SE 1027,8 12 0,0
18.06.2018 08:00:00 14,6 13,3 5 3 SE 1027,8 12 -
18.06.2018 07:00:00 13,7 12,6 4 2 SSE 1027,7 10 0,0
18.06.2018 06:00:00 13,7 12,9 2 1 SSE 1027,5 10 0,0
18.06.2018 05:00:00 13,6 13,0 4 2 S 1027,3 12 -
18.06.2018 04:00:00 13,5 12,6 2 1 NNW 1027,2 11 0,0
18.06.2018 03:00:00 14,1 13,0 2 1 SE 1027,2 11 0,0
18.06.2018 02:00:00 14,6 12,6 2 1 NW 1027,4 16 -
18.06.2018 01:00:00 15,1 12,8 2 1 SSE 1027,2 15 0,0
18.06.2018 00:00:00 15,9 11,9 4 2 S 1027,3 17 0,0
17.06.2018 23:00:00 16,7 11,6 4 2 ENE 1027,1 20 -
17.06.2018 22:00:00 17,3 10,7 8 4 ENE 1026,4 19 0,0
17.06.2018 21:00:00 19,0 13,6 9 5 ENE 1026,0 0,4 0,0
17.06.2018 20:00:00 19,6 13,8 9 5 ENE 1025,7 20 -
17.06.2018 19:00:00 20,3 14,6 8 4 ENE 1025,2 19 0,0
17.06.2018 18:00:00 21,4 15,2 13 7 ENE 1024,9 19 0,0
17.06.2018 17:00:00 22,5 15,6 11 6 ENE 1024,3 20 -
17.06.2018 16:00:00 22,0 15,1 11 6 ENE 1024,3 19 0,0
17.06.2018 15:00:00 22,6 15,2 9 5 NE 1024,2 20 0,0
17.06.2018 14:00:00 22,7 12,6 8 4 E 1024,5 20 -
17.06.2018 13:00:00 21,4 11,7 2 1 SW 1024,7 20 0,0
17.06.2018 12:00:00 20,8 13,0 4 2 SE 1024,8 20 0,0
17.06.2018 11:00:00 17,1 12,4 5 3 NNW 1025,4 20 -
17.06.2018 10:00:00 17,6 13,5 5 3 SSW 1024,9 17 0,0
17.06.2018 09:00:00 15,2 13,9 4 2 SSW 1025,5 11 0,0
17.06.2018 08:00:00 14,3 13,3 2 1 WNW 1025,2 12 -
17.06.2018 07:00:00 14,2 12,8 2 1 S 1024,3 10 0,0
17.06.2018 06:00:00 14,3 12,8 2 1 S 1024,0 9 0,0
17.06.2018 05:00:00 14,5 13,2 4 2 S 1023,9 10 -
17.06.2018 04:00:00 14,4 13,3 4 2 W 1024,0 9 0,0
17.06.2018 03:00:00 14,7 13,6 5 3 SW 1023,9 9 0,0
17.06.2018 02:00:00 14,8 13,0 4 2 NW 1024,3 10 -
17.06.2018 01:00:00 15,1 12,4 4 2 ENE 1024,0 20 0,0
17.06.2018 00:00:00 15,3 12,6 5 3 ENE 1023,9 17 0,0
16.06.2018 23:00:00 15,7 12,8 2 1 ENE 1023,8 10 -
16.06.2018 22:00:00 15,5 12,3 4 2 N 1023,4 19 0,0
16.06.2018 21:00:00 16,1 12,1 5 3 N 1023,1 19 0,0
16.06.2018 20:00:00 16,8 12,5 8 4 NNE 1022,3 20 -
16.06.2018 19:00:00 17,7 13,2 11 6 NE 1021,6 19 0,0
16.06.2018 18:00:00 18,6 13,2 13 7 NE 1021,3 18 0,0
16.06.2018 17:00:00 20,2 13,9 9 5 NE 1020,5 20 -
16.06.2018 16:00:00 21,1 14,0 13 7 NE 1020,1 19 0,0
16.06.2018 15:00:00 22,1 13,2 4 2 N 1019,9 20 0,0

tt = temperature
td = dewpoint
ff = wind speed
dd = wind direction
ppp = reduced air pressure
vv = visibility
rr = precipitation

Next stations